Weather History for KHCO - March, 2013

Change the Weather History Date:

Wednesday, March 6, 2013

  Actual Average Record
Temperature  
Mean Temperature 8 °F -  
Max Temperature 21 °F 26 °F 55 °F (1988)
Min Temperature -5 °F 5 °F -22 °F (1955)
Degree Days  
Heating Degree Days 57    
Moisture  
Dew Point 12 °F    
Average Humidity 88    
Maximum Humidity 93    
Minimum Humidity 74    
Precipitation  
Precipitation 0.00 in - - ()
Sea Level Pressure  
Sea Level Pressure 30.39 in    
Wind  
Wind Speed 4 mph (NNW)    
Max Wind Speed 12 mph    
Max Gust Speed -    
Visibility 7 miles    
Events Fog , Snow    
Averages and records for this station are not official NWS values.
T = Trace of Precipitation, MM = Missing Value Source: NWS Daily Summary

Daily Weather History Graph

Daily Weather History Graph

Search for Another Location

Airport or City:

Trip Planner

Search our weather history database for the weather conditions in past years. The results will help you decide how hot, cold, wet, or windy it might be!

Date:

Astronomy

Mar. 06, 2013 Rise Set
Actual Time 6:58 AM CST 6:19 PM CST
Civil Twilight 6:27 AM CST 6:51 PM CST
Nautical Twilight 5:51 AM CST 7:27 PM CST
Astronomical Twilight 5:14 AM CST 8:04 PM CST
Moon 3:30 AM CST (3/6) 12:42 PM CST (3/6)
Length of Visible Light 12h 23m
Length of Day
11h 20m
Waning Crescent, 29% of the Moon is Illuminated
Mar 6
Waning Crescent
Mar 11
New
Mar 19
First Quarter
Mar 27
Full
Apr 2
Last Quarter

Hourly Weather History & Observations

Time (CST) Temp. Windchill Dew Point Humidity Pressure Visibility Wind Dir Wind Speed Gust Speed Precip Events Conditions
12:14 AM 17.6 °F 8.2 °F 15.8 °F 93% 30.40 in 10.0 mi NNW 6.9 mph - N/A Snow Light Snow
12:33 AM 17.6 °F 6.4 °F 15.8 °F 93% 30.39 in 10.0 mi NNW 9.2 mph - N/A Snow Light Snow
12:54 AM 17.6 °F 6.4 °F 15.8 °F 93% 30.39 in 10.0 mi NNW 9.2 mph - N/A Snow Light Snow
1:14 AM 17.6 °F 9.3 °F 15.8 °F 93% 30.40 in 10.0 mi NNW 5.8 mph - N/A Snow Light Snow
1:34 AM 17.6 °F 10.7 °F 15.8 °F 93% 30.40 in 7.0 mi NNW 4.6 mph - N/A   Overcast
1:54 AM 17.6 °F 9.3 °F 15.8 °F 93% 30.40 in 10.0 mi NNW 5.8 mph - N/A   Overcast
2:14 AM 17.6 °F 8.2 °F 15.8 °F 93% 30.41 in 10.0 mi NW 6.9 mph - N/A Snow Light Snow
2:34 AM 17.6 °F 8.2 °F 15.8 °F 93% 30.41 in 7.0 mi NNW 6.9 mph - N/A Snow Light Snow
2:54 AM 17.6 °F 8.2 °F 15.8 °F 93% 30.40 in 7.0 mi NNW 6.9 mph - N/A Snow Light Snow
3:14 AM 17.6 °F 9.3 °F 15.8 °F 93% 30.40 in 7.0 mi NNW 5.8 mph - N/A Snow Light Snow
3:34 AM 17.6 °F 9.3 °F 15.8 °F 93% 30.40 in 10.0 mi NW 5.8 mph - N/A Snow Light Snow
3:54 AM 17.6 °F 10.7 °F 15.8 °F 93% 30.40 in 7.0 mi NNW 4.6 mph - N/A Snow Light Snow
4:14 AM 17.6 °F 9.3 °F 15.8 °F 93% 30.40 in 7.0 mi NNW 5.8 mph - N/A Snow Light Snow
4:34 AM 17.6 °F 9.3 °F 15.8 °F 93% 30.40 in 5.0 mi NNW 5.8 mph - N/A Snow Light Snow
4:53 AM 17.6 °F 9.3 °F 15.8 °F 93% 30.41 in 5.0 mi NNW 5.8 mph - N/A Snow Light Snow
5:14 AM 17.6 °F 8.2 °F 15.8 °F 93% 30.41 in 5.0 mi NNW 6.9 mph - N/A Snow Light Snow
5:34 AM 17.6 °F 12.3 °F 15.8 °F 93% 30.42 in 4.0 mi NNW 3.5 mph - N/A Snow Light Snow
5:53 AM 17.6 °F 10.7 °F 15.8 °F 93% 30.43 in 5.0 mi NNW 4.6 mph - N/A Snow Light Snow
6:14 AM 17.6 °F 10.7 °F 15.8 °F 93% 30.43 in 4.0 mi NNW 4.6 mph - N/A Snow Light Snow
6:34 AM 17.6 °F 10.7 °F 15.8 °F 93% 30.43 in 4.0 mi NNW 4.6 mph - N/A Snow Light Snow
6:53 AM 17.6 °F 12.3 °F 15.8 °F 93% 30.44 in 2.5 mi NNW 3.5 mph - N/A Snow Light Snow
7:14 AM 17.6 °F - 15.8 °F 93% 30.44 in 3.0 mi Calm Calm - N/A Snow Light Snow
7:34 AM 17.6 °F 12.3 °F 15.8 °F 93% 30.44 in 3.0 mi NNW 3.5 mph - N/A Snow Light Snow
7:53 AM 17.6 °F - 15.8 °F 93% 30.44 in 2.0 mi Calm Calm - N/A Snow Light Snow
8:14 AM 17.6 °F - 15.8 °F 93% 30.44 in 1.2 mi Calm Calm - N/A Snow Light Snow
8:33 AM 17.6 °F 12.3 °F 15.8 °F 93% 30.43 in 1.0 mi NNW 3.5 mph - N/A Snow Light Snow
8:54 AM 17.6 °F - 15.8 °F 93% 30.44 in 1.8 mi Calm Calm - N/A Snow Light Snow
9:14 AM 17.6 °F 10.7 °F 15.8 °F 93% 30.43 in 4.0 mi North 4.6 mph - N/A Snow Light Snow
9:34 AM 17.6 °F - 15.8 °F 93% 30.43 in 7.0 mi Calm Calm - N/A Snow Light Snow
9:54 AM 17.6 °F - 15.8 °F 93% 30.43 in 7.0 mi Calm Calm - N/A Snow Light Snow
10:14 AM 17.6 °F - 15.8 °F 93% 30.43 in 4.0 mi Calm Calm - N/A Snow Light Snow
10:34 AM 19.4 °F - 15.8 °F 86% 30.43 in 4.0 mi Calm Calm - N/A Snow Light Snow
10:53 AM 19.4 °F - 15.8 °F 86% 30.43 in 1.0 mi Calm Calm - N/A Snow Light Snow
11:14 AM 19.4 °F 14.3 °F 15.8 °F 86% 30.43 in 3.0 mi West 3.5 mph - N/A Snow Light Snow
11:34 AM 19.4 °F 14.3 °F 15.8 °F 86% 30.43 in 1.8 mi West 3.5 mph - N/A Snow Light Snow
11:53 AM 19.4 °F - 15.8 °F 86% 30.42 in 2.0 mi Calm Calm - N/A Snow Light Snow
12:14 PM 19.4 °F - 15.8 °F 86% 30.42 in 4.0 mi Calm Calm - N/A Snow Light Snow
12:34 PM 19.4 °F - 15.8 °F 86% 30.41 in 4.0 mi Calm Calm - N/A Snow Light Snow
12:53 PM 21.2 °F - 15.8 °F 80% 30.40 in 5.0 mi Calm Calm - N/A Snow Light Snow
1:14 PM 21.2 °F 16.4 °F 15.8 °F 80% 30.39 in 10.0 mi SSW 3.5 mph - N/A   Unknown
1:34 PM 21.2 °F 14.9 °F 15.8 °F 80% 30.38 in 10.0 mi SW 4.6 mph - N/A   Unknown
1:53 PM 21.2 °F 16.4 °F 15.8 °F 80% 30.38 in 10.0 mi SW 3.5 mph - N/A   Scattered Clouds
2:14 PM 21.2 °F 12.6 °F 15.8 °F 80% 30.37 in 10.0 mi SW 6.9 mph - N/A   Clear
2:34 PM 21.2 °F 16.4 °F 15.8 °F 80% 30.37 in 10.0 mi WSW 3.5 mph - N/A   Clear
2:54 PM 21.2 °F 14.9 °F 15.8 °F 80% 30.37 in 10.0 mi WSW 4.6 mph - N/A   Clear
3:14 PM 21.2 °F - 15.8 °F 80% 30.37 in 10.0 mi Calm Calm - N/A   Clear
3:34 PM 19.4 °F - 14.0 °F 80% 30.37 in 10.0 mi Calm Calm - N/A   Clear
3:54 PM 19.4 °F - 14.0 °F 80% 30.36 in 10.0 mi Calm Calm - N/A   Clear
4:14 PM 19.4 °F - 12.2 °F 74% 30.36 in 10.0 mi Calm Calm - N/A   Clear
4:34 PM 19.4 °F - 12.2 °F 74% 30.36 in 10.0 mi Calm Calm - N/A   Clear
4:54 PM 17.6 °F - 12.2 °F 79% 30.35 in 10.0 mi Calm Calm - N/A   Clear
5:14 PM 17.6 °F - 12.2 °F 79% 30.35 in 10.0 mi Calm Calm - N/A   Clear
5:34 PM 19.4 °F - 12.2 °F 74% 30.35 in 10.0 mi Calm Calm - N/A   Clear
5:54 PM 15.8 °F - 12.2 °F 86% 30.35 in 10.0 mi Calm Calm - N/A   Clear
6:14 PM 15.8 °F - 12.2 °F 86% 30.35 in 10.0 mi Calm Calm - N/A   Clear
6:34 PM 15.8 °F - 12.2 °F 86% 30.35 in 10.0 mi Calm Calm - N/A   Clear
6:54 PM 8.6 °F - 6.8 °F 92% 30.35 in 10.0 mi Calm Calm - N/A   Clear
7:14 PM 3.2 °F - -0.4 °F 85% 30.35 in 0.2 mi Calm Calm - N/A Fog Light Freezing Fog
7:34 PM 3.2 °F - 1.4 °F 92% 30.35 in 10.0 mi Calm Calm - N/A   Scattered Clouds
7:54 PM 1.4 °F - -2.2 °F 85% 30.35 in 10.0 mi Calm Calm - N/A   Clear
8:14 PM -0.4 °F - -2.2 °F 92% 30.35 in 10.0 mi Calm Calm - N/A   Clear
8:34 PM -2.2 °F - -5.8 °F 85% 30.35 in 10.0 mi Calm Calm - N/A   Clear
8:54 PM -0.4 °F -12.0 °F -5.8 °F 78% 30.34 in 10.0 mi East 5.8 mph - N/A   Clear
9:14 PM -4.0 °F -16.3 °F -7.6 °F 85% 30.32 in 10.0 mi ENE 5.8 mph - N/A   Clear
9:34 PM -5.8 °F - -9.4 °F 84% 30.33 in 10.0 mi Calm Calm - N/A   Clear
9:54 PM 1.4 °F - -2.2 °F 85% 30.32 in 10.0 mi Calm Calm - N/A   Clear
10:14 PM -0.4 °F -10.4 °F -4.0 °F 85% 30.33 in 10.0 mi East 4.6 mph - N/A   Clear
10:34 PM 1.4 °F -9.9 °F -0.4 °F 92% 30.32 in 10.0 mi East 5.8 mph - N/A   Clear
10:54 PM 6.8 °F -4.8 °F 3.2 °F 85% 30.32 in 10.0 mi East 6.9 mph - N/A   Clear
11:14 PM 6.8 °F -7.8 °F 3.2 °F 85% 30.31 in 10.0 mi East 10.4 mph - N/A   Clear
11:34 PM 8.6 °F -6.3 °F 6.8 °F 92% 30.31 in 10.0 mi East 11.5 mph - N/A   Clear
11:54 PM 8.6 °F -5.5 °F 6.8 °F 92% 30.30 in 10.0 mi East 10.4 mph - N/A   Clear